Weather Service Report


753 
ASUS41 KGYX 260610
RWRGYX
WEATHER ROUNDUP FOR MAINE AND NEW HAMPSHIRE
NATIONAL WEATHER SERVICE GRAY ME
200 AM EDT SUN JUN 26 2016

MEZ002-005-006-010-012-015-018-020-021-024-026-027-029-260700-
MAINE
  
CITY           SKY/WX    TMP DP  RH WIND       PRES   REMARKS
PORTLAND       CLEAR     56  51  84 CALM      30.20F                  
6HR MIN TEMP:  55; 6HR MAX TEMP:  66;                                

SANFORD        CLEAR     46  41  81 CALM      30.21S                  
BAR HARBOR     CLEAR     54  48  80 CALM      30.20F                  
WISCASSET      CLEAR     50  47  89 CALM      30.21F                  
6HR MIN TEMP:  50; 6HR MAX TEMP:  68;                                

ROCKLAND       CLEAR     52  48  86 W5        30.20S                  
FRYEBURG       CLEAR     52  50  93 CALM      30.21S                  
6HR MIN TEMP:  51; 6HR MAX TEMP:  73;                                

LEWISTONAUBURN CLEAR     49  47  93 CALM      30.21S                  
AUGUSTA        CLEAR     56  46  69 S3        30.20F                  
6HR MIN TEMP:  55; 6HR MAX TEMP:  68; 6HR PCP: TRACE;                

WATERVILLE     PTCLDY    54  48  80 S5        30.16F                  
BANGOR         PTCLDY    55  48  77 CALM      30.19F                  
6HR MIN TEMP:  55; 6HR MAX TEMP:  72;                                

GREENVILLE       N/A     57  49  74 CALM      30.18S                  
6HR MIN TEMP:  57; 6HR MAX TEMP:  71;                                

MILLINOCKET    CLEAR     58  53  84 CALM      30.18S                  
6HR MIN TEMP:  58; 6HR MAX TEMP:  76;                                

HOULTON        CLEAR     60  52  74 S6        30.15S                  
6HR MIN TEMP:  58; 6HR MAX TEMP:  75;                                

PRESQUE ISLE   CLEAR     57  52  83 CALM      30.15R                  
6HR MIN TEMP:  57; 6HR MAX TEMP:  77;                                

FRENCHVILLE    PTCLDY    62  53  72 SW7       30.13S                  
6HR MIN TEMP:  62; 6HR MAX TEMP:  74;                                

CARIBOU        CLEAR     61  53  75 CALM      30.13S                  
6HR MIN TEMP:  61; 6HR MAX TEMP:  78;                                

$$

NHZ002-005-008-009-011-012-014-260700-
NEW HAMPSHIRE
  
CITY           SKY/WX    TMP DP  RH WIND       PRES   REMARKS
PORTSMOUTH     CLEAR     56  49  78 CALM      30.18F                  
ROCHESTER      CLEAR     54  47  77 CALM      30.20F                  
6HR MIN TEMP:  54; 6HR MAX TEMP:  68;                                

NASHUA         CLEAR     56  48  74 CALM      30.21R                  
MANCHESTER     CLEAR     62  46  55 CALM      30.19S                  
6HR MIN TEMP:  62; 6HR MAX TEMP:  75;                                

CONCORD        CLEAR     57  48  72 CALM      30.20S                  
6HR MIN TEMP:  56; 6HR MAX TEMP:  75;                                

LACONIA        CLEAR     57  52  83 CALM      30.22R                  
PLYMOUTH       FAIR      54  53  96 CALM      30.22R FOG              
BERLIN         CLEAR     50  47  89 CALM      30.21R                  
6HR MIN TEMP:  50; 6HR MAX TEMP:  76;                                

WHITEFIELD     CLEAR     53  49  86 CALM      30.20R                  
6HR MIN TEMP:  53; 6HR MAX TEMP:  75;                                

JAFFREY        CLEAR     56  52  86 S5        30.23R                  
6HR MIN TEMP:  56; 6HR MAX TEMP:  75;                                

KEENE          CLEAR     57  54  88 CALM      30.22R                  
LEBANON        CLEAR     57  53  86 CALM      30.19R                  
6HR MIN TEMP:  56; 6HR MAX TEMP:  75;                                

MT WASHINGTON  PTCLDY    50  45  81 W7          N/A                   
6HR MIN TEMP:  49; 6HR MAX TEMP:  54;                                

$$

VTZ005-007-008-260700-
VERMONT
  
CITY           SKY/WX    TMP DP  RH WIND       PRES   REMARKS
ST JOHNSBURY     N/A     59  55  87 MISG      30.18R                  
MONTPELIER     FAIR      55  53  93 CALM      30.23R                  
BURLINGTON     FAIR      65  53  65 E3        30.15R                  
$$

MAZ007-012-024-CTZ003-RIZ002-NYZ038-NYZ072-260700-
SOUTHERN NEW ENGLAND AND NY
  
CITY           SKY/WX    TMP DP  RH WIND       PRES   REMARKS
BOSTON         CLEAR     61  54  77 S7        30.21S                  
WORCESTER      CLEAR     59  46  62 W9        30.22S                  
NANTUCKET      CLEAR     51  48  89 CALM      30.19F                  
PROVIDENCE     CLEAR     59  54  83 CALM      30.22S                  
HARTFORD       PTCLDY    61  51  70 SE5       30.20S                  
ALBANY         PTCLDY    70  54  56 S10       30.17R                  
NEW YORK CITY  PTCLDY    70  60  70 SW6       30.21R                  
$$

ANZ081-ANZ082-ANZ150-NHZ014-MEZ023>029-260700-
COASTAL MARINE OBSERVATIONS
  
STATION/POSITION TIME  TEMP    WIND        PRES    WAVE
                       AIR SEA DIR/SP/G            HT/PER
                 (UTC) (F)     (DEG/KT/KT) (MB)    (FT/S)
MOUNT DESERT ROC 0600   59     250/  8/  9 1022.6F
MATINICUS ROCK   0500   60     260/  9/  9 1022.5F
ISLE OF SHOALS   0500   62     180/  3/  3 1022.8F
JEFFREYS LEDGE   0508      62                N/A     2/ 8
CASHES LEDGE BUO 0550   61 61  240/  2/  2 1022.9F   2/ 8
GEORGES BANK BUO 0550   58 58              1020.6F   4/ 6
$$

.............KEY..............
   WCI - WIND CHILL
   TC  - TEMPERATURE IN CELSIUS
   VSB - VISIBILITY IN MILES
   HX  - HEAT INDEX
   FAIR- INDICATES FEW OR NO CLOUDS BELOW 12,000 FT, WITH NO 
         SIGNIFICANT WEATHER AND/OR OBSTRUCTIONS TO VISIBILITY.


  

Return to Home page


Western Regional Climate Center, wrcc@dri.edu